Lexington Weather

Lexington, Massachusetts, USA

36°F
1/28/2020 4:55am 
  • Lexington Conditions: Overcast
  • Temperature: 36.0°F / 2.2°CColder 0.1°F than last hour.
  • Dew Point: 29.8°FIncreased 0.5°Fsince last hour.
  • Relative Humidity: 78%Increased 2.0% since last hour.
  • Wind: Wind from NNW NNW 2 mph, 10-min avg: 2 mph, gust: 4 mph
  • Barometer: 29.63 in Steady
  • Visibility: 10 miles
  • Rain Today: 0.00 in
  •   

Regional Weather Roundup
for Boston / Norton, MA

        
000
ASUS41 KBOX 270400
RWRBOX

REGIONAL WEATHER ROUNDUP
NATIONAL WEATHER SERVICE BOSTON/NORTON MA
1100 PM EST SUN JAN 26 2020

NOTE:  "FAIR" INDICATES FEW OR NO CLOUDS BELOW 12,000 FEET WITH NO 
SIGNIFICANT WEATHER AND/OR OBSTRUCTIONS TO VISIBILITY.

MAZALL-270500-
EASTERN MASSACHUSETTS
  
CITY           SKY/WX    TMP DP  RH WIND       PRES   REMARKS
BOSTON         MOCLDY    41  27  57 SW13      29.68S                  
BEVERLY        CLOUDY    39  27  62 SW8       29.66R                  
LAWRENCE       CLOUDY    37  28  70 SW9       29.67S WCI  30          
BEDFORD        CLOUDY    39  26  59 SW5       29.66S                  
BLUE HILL        N/A     35  26  69 SW12G20   29.65F WCI  27          
NORWOOD        FAIR      40  27  59 SW7       29.69F                  
MARSHFIELD     NOT AVBL                                               
PLYMOUTH       CLOUDY    37  28  70 SW10      29.70S WCI  30          
TAUNTON        CLOUDY    38  27  64 SW5       29.71S                  
NEW BEDFORD    FAIR      37  27  67 W8        29.71S WCI  31          
$$

MAZALL-270500-
CAPE COD AND THE ISLANDS
  
CITY           SKY/WX    TMP DP  RH WIND       PRES   REMARKS
FALMOUTH       NOT AVBL                                               
HYANNIS        NOT AVBL                                               
CHATHAM        FAIR      36  30  79 SW6       29.72R WCI  31          
PROVINCETOWN   FAIR      39  32  76 W12       29.70S WCI  32          
NANTUCKET      FAIR      39  33  79 W10       29.72F                  
MARTHAS VNYRD  FAIR      39  32  76 W8        29.72S                  
$$
 
MAZALL-270500-
CENTRAL AND WESTERN MASSACHUSETTS
  
CITY           SKY/WX    TMP DP  RH WIND       PRES   REMARKS
WORCESTER      CLOUDY    36  26  67 W15       29.65F WCI  27          
FITCHBURG      CLOUDY    39  27  62 W7        29.66F                  
ORANGE         CLOUDY    38  28  67 SW7       29.67F                  
SPRINGFIELD    CLOUDY    37  28  69 S7        29.69F WCI  31          
WESTFIELD      CLOUDY    35  27  72 S3        29.70F                  
NORTH ADAMS    NOT AVBL                                               
PITTSFIELD     CLOUDY    36  27  69 SW7       29.65F WCI  30          
$$
 
RIZALL-270500-
RHODE ISLAND
  
CITY           SKY/WX    TMP DP  RH WIND       PRES   REMARKS
PROVIDENCE     MOCLDY    39  28  64 SW7       29.72S                  
NEWPORT        CLOUDY    40  28  62 VRB5      29.72S                  
BLOCK ISLAND   CLOUDY    40  31  70 W15G21    29.74F WCI  32          
SMITHFIELD     MOCLDY    36  27  69 W8        29.69F WCI  30          
WESTERLY       CLOUDY    44  29  55 W8        29.74S                  
$$
 
CTZALL-270500-
CONNECTICUT
  
CITY           SKY/WX    TMP DP  RH WIND       PRES   REMARKS
BRADLEY INTL   CLOUDY    39  27  62 SW6       29.71F                  
HARTFORD       CLOUDY    41  28  60 SW7       29.73S                  
BRIDGEPORT     MOCLDY    40  30  67 W8        29.76S                  
DANBURY        CLOUDY    37  27  67 SW9       29.75S WCI  30          
GROTON         NOT AVBL                                               
NEW HAVEN      CLOUDY    42  31  64 SW8       29.75S                  
CHESTER        NOT AVBL                                               
MERIDEN        CLOUDY    38  28  67 S3        29.74F                  
WILLIMANTIC    CLOUDY    38  28  67 SW5       29.73S                  
OXFORD         CLOUDY    37  28  70 W6        29.73S                  
$$

MEZ002-015-021-024-NHZ003-005-008-011-012-014-VTZ005-008-270500-
NORTHERN NEW ENGLAND
  
CITY           SKY/WX    TMP DP  RH WIND       PRES   REMARKS
PORTLAND ME    FAIR      36  26  67 SW10      29.59F WCI  28          
BANGOR ME      FAIR      30  29  96 S3        29.53S                  
CONCORD NH     CLOUDY    36  28  73 SW6       29.62S WCI  31          
MANCHESTER NH  CLOUDY    37  28  70 SW7       29.63R WCI  32          
NASHUA NH      CLOUDY    37  31  78 S3        29.66S                  
PORTSMOUTH NH  MOCLDY    36  27  69 SW9       29.62S WCI  29          
JAFFREY NH     CLOUDY    37  27  67 SW8       29.63S WCI  31          
KEENE NH       CLOUDY    38  28  67 W8        29.65S                  
BURLINGTON VT  CLOUDY    36  32  85 S8        29.59S WCI  30          
MT. WASHINGTON NOT AVBL                                               
$$

NYZ052-076-270500-
EASTERN NEW YORK
  
CITY           SKY/WX    TMP DP  RH WIND       PRES   REMARKS
ALBANY         CLOUDY    39  29  67 S6        29.69F                  
NEW YORK CITY  FAIR      40  25  55 W15       29.78F WCI  32          
$$
 
ANZALL-270500-
MARINE OBSERVATIONS
  
STATION/POSITION TIME  TEMP    WIND        PRES    VSBY  WAVE
                       AIR SEA DIR/SP/G                  HT/PER
                 (UTC) (F)     (DEG/KT/KT) (MB)    (MI)  (FT/S)
BOSTON BUOY      0250   41 43  230/ 17/ 21 1004.3          4/10
BUZZARDS BAY     0300   41     260/ 19/ 21 1006.9F
NANTUCKET SOUND  NOT AVBL
MASS BAY-STELLWA 0304   40 41  260/ 17/ 21 1002.4F  1 7/8  4/ 8
ISLE OF SHOALS   0300   39     240/ 15/ 18 1003.2F
S OF BLOCK IS    0330      44                N/A           6/11
$$

......................KEY.........................
  SKY/WX - SKY CONDITION/PRESENT WEATHER
  TMP    - TEMPERATURE IN FAHRENHEIT
  DWPT   - DEWPOINT IN FAHRENHEIT
  RH     - RELATIVE HUMIDITY IN PERCENT
  WIND   - DIRECTION AND SPEED IN MPH
  PRES   - MEAN SEA LEVEL PRESSURE IN INCHES OF HG
  WCI    - WIND CHILL INDEX
  VSB    - VISIBILITY IN MILES
  HX     - HEAT INDEX
  TC     - TEMPERATURE IN CELSIUS
  VRB    - VARIABLE WIND DIRECTION
  N/A    - NOT AVAILABLE
  
      

Other recent Regional Weather Roundups

Tue Jan 28, 4:10am

Tue Jan 28, 4:00am

Tue Jan 28, 3:10am

Tue Jan 28, 3:01am

Tue Jan 28, 2:10am

Tue Jan 28, 2:00am

Tue Jan 28, 1:10am

Tue Jan 28, 1:00am

Tue Jan 28, 12:10am

Tue Jan 28, 12:01am

Mon Jan 27, 11:10pm

Mon Jan 27, 11:00pm

Mon Jan 27, 10:10pm

Mon Jan 27, 10:00pm

Mon Jan 27, 9:10pm

Mon Jan 27, 9:00pm

Mon Jan 27, 8:10pm

Mon Jan 27, 8:01pm

Mon Jan 27, 7:10pm

Mon Jan 27, 7:00pm

Mon Jan 27, 6:10pm

Mon Jan 27, 6:00pm

Mon Jan 27, 5:10pm

Mon Jan 27, 5:00pm

Mon Jan 27, 4:10pm

Mon Jan 27, 4:00pm

Mon Jan 27, 3:10pm

Mon Jan 27, 3:00pm

Mon Jan 27, 2:10pm

Mon Jan 27, 2:00pm

Mon Jan 27, 1:10pm

Mon Jan 27, 1:00pm

Mon Jan 27, 12:10pm

Mon Jan 27, 12:00pm

Mon Jan 27, 11:10am

Mon Jan 27, 11:01am

Mon Jan 27, 10:10am

Mon Jan 27, 10:00am

Mon Jan 27, 9:10am

Mon Jan 27, 9:00am

Mon Jan 27, 8:10am

Mon Jan 27, 8:00am

Mon Jan 27, 7:10am

Mon Jan 27, 7:00am

Mon Jan 27, 6:10am

Mon Jan 27, 6:00am

Mon Jan 27, 5:10am

Mon Jan 27, 5:00am

Mon Jan 27, 4:10am

Mon Jan 27, 4:01am

Mon Jan 27, 3:10am

Mon Jan 27, 3:00am

Mon Jan 27, 2:10am

Mon Jan 27, 2:00am

Mon Jan 27, 1:10am

Mon Jan 27, 1:00am

Mon Jan 27, 12:10am

Mon Jan 27, 12:00am

Sun Jan 26, 11:10pm

Sun Jan 26, 10:10pm

Sun Jan 26, 10:00pm

Sun Jan 26, 9:10pm

Sun Jan 26, 9:01pm

Sun Jan 26, 8:10pm

Sun Jan 26, 8:00pm

Sun Jan 26, 7:10pm

Sun Jan 26, 7:00pm

Sun Jan 26, 6:10pm

Sun Jan 26, 6:01pm

Sun Jan 26, 5:10pm

Sun Jan 26, 5:01pm

Sun Jan 26, 4:10pm

Sun Jan 26, 4:00pm

Sun Jan 26, 3:10pm

Sun Jan 26, 3:01pm

Sun Jan 26, 2:10pm

Sun Jan 26, 2:01pm

Sun Jan 26, 1:10pm

Sun Jan 26, 1:00pm

Sun Jan 26, 12:10pm

Sun Jan 26, 12:00pm

Sun Jan 26, 11:10am

Sun Jan 26, 11:01am

Sun Jan 26, 10:10am

Sun Jan 26, 10:01am

Sun Jan 26, 9:10am

Sun Jan 26, 9:00am

Sun Jan 26, 8:10am

Sun Jan 26, 8:00am

Sun Jan 26, 7:10am

Sun Jan 26, 7:00am

Sun Jan 26, 6:10am

Sun Jan 26, 6:00am

Sun Jan 26, 5:10am

Sun Jan 26, 5:00am

Sun Jan 26, 4:10am

Sun Jan 26, 4:01am

Sun Jan 26, 3:10am

Sun Jan 26, 3:01am

Sun Jan 26, 2:10am

Sun Jan 26, 2:00am

Sun Jan 26, 1:10am

Sun Jan 26, 1:00am

Sun Jan 26, 12:10am

Sun Jan 26, 12:00am

Sat Jan 25, 11:10pm

Sat Jan 25, 11:00pm

Sat Jan 25, 10:10pm

Sat Jan 25, 10:01pm

Sat Jan 25, 9:10pm

Sat Jan 25, 9:01pm

Sat Jan 25, 8:10pm

Sat Jan 25, 8:01pm

Sat Jan 25, 7:10pm

Sat Jan 25, 7:01pm

Sat Jan 25, 6:10pm

Sat Jan 25, 6:01pm

Sat Jan 25, 5:10pm

Sat Jan 25, 5:01pm

Sat Jan 25, 4:10pm

Sat Jan 25, 4:00pm

Sat Jan 25, 3:10pm

Sat Jan 25, 3:01pm

Sat Jan 25, 2:10pm

Sat Jan 25, 2:00pm

Sat Jan 25, 1:10pm

Sat Jan 25, 1:00pm

Sat Jan 25, 12:10pm

Sat Jan 25, 12:00pm

Sat Jan 25, 11:10am

Sat Jan 25, 11:00am

Sat Jan 25, 10:10am

Sat Jan 25, 10:00am

Sat Jan 25, 9:10am

Sat Jan 25, 9:00am

Sat Jan 25, 8:10am

Sat Jan 25, 8:01am

Sat Jan 25, 7:10am

Sat Jan 25, 7:00am

Sat Jan 25, 6:10am

Sat Jan 25, 6:00am

Sat Jan 25, 5:10am

Sat Jan 25, 5:00am

Meta data:

ID: 8d4b2561-5985-4799-bec8-725efc771a94
Link: https://api.weather.gov/products/8d4b2561-5985-4799-bec8-725efc771a94